sat.trackr.live / text

‹ back to catalog

STARLINK-3764

NORAD 52280 · 2022-041V

PAYLOAD ACTIVE UNKNOWN

§ Identity

Operator
Country
US
Launch date
2022-04-21
Launch site
AFETR
Launch vehicle
Mass (kg)
RCS (m²)

Purposes: comms

External: N2YO · Heavens-Above · Gunter

§ Orbital elements

Epoch: 2026-09-19T15:55:18.491808Z

Period
94.01 min
Inclination
53.1617°
Eccentricity
0.0001205
Mean motion
15.31703847 rev/d
Perigee alt
469.9 km
Apogee alt
471.6 km
Semi-major
6,848.9 km
B*
1.4566e-5
RAAN
304.9623°
Arg perigee
82.3428°
Mean anomaly
277.7710°
Rev number
24,383

§ Raw data

STARLINK-37641 52280U 22041V   26262.66340847  .00000087  00000+0  14566-4 0  99922 52280  53.1617 304.9623 0001205  82.3428 277.7710 15.31703847243834

JSON: /api/v1/satellites/52280 · /tle

For live sub-satellite position, see the globe view (requires WebGL).

§ Visibility from observer

Set your observer location to see the next 7 days of passes ≥ 10°. The values pass through the URL so the page stays shareable.

No JS? Fill the form by hand. The geolocation button needs JavaScript.